FW3145 Weather Reports


time (UTC)temp
C
wind
direction
speed
KPH
gust
KPH
rain 1hr
cm
rain 24hr
cm
rain mn
cm
humidity
%
barometer
mb
20260504033038 11 37 0.0 0.0 0.00 0.00 0.00 81 1017.6
20260504031551 11 44 0.0 0.0 0.00 0.00 0.00 81 1017.7
20260504030042 10 93 0.0 0.0 0.00 0.00 0.00 81 1017.7
20260504024535 11 93 0.0 0.0 0.00 0.00 0.00 81 1017.8
20260504023037 12 84 0.0 0.0 0.00 0.00 0.00 81 1017.8
20260504021532 12 41 0.0 0.0 0.00 0.00 0.00 81 1017.9
20260504020033 12 51 0.0 0.0 0.00 0.00 0.00 81 1017.9
20260504014539 11 30 0.0 0.0 0.00 0.00 0.00 81 1017.9
20260504013039 11 26 0.0 0.0 0.00 0.00 0.00 82 1017.9
20260504011530 11 26 0.0 0.0 0.00 0.00 0.00 81 1017.8
20260504010026 11 26 0.0 0.0 0.00 0.00 0.00 81 1017.8
20260504004526 11 53 0.0 0.0 0.00 0.00 0.00 81 1017.7
20260504003023 12 58 0.0 0.0 0.00 0.00 0.00 81 1017.7
20260504001521 12 26 0.0 0.0 0.00 0.00 0.00 81 1017.7
20260504000020 12 29 0.0 0.0 0.00 0.00 0.00 81 1017.9
20260503234519 12 36 0.0 0.0 0.00 0.00 0.00 81 1017.9
20260503233026 12 31 0.0 0.0 0.00 0.00 0.00 81 1018.0
20260503231517 12 36 0.0 0.0 0.00 0.00 0.00 81 1018.1
20260503230016 12 30 0.0 0.0 0.00 0.00 0.00 81 1018.1
20260503224515 12 38 0.0 0.0 0.00 0.00 0.00 81 1018.2
20260503223014 12 35 0.0 0.0 0.00 0.00 0.00 80 1018.2
20260503221517 12 32 0.0 0.0 0.00 0.00 0.00 80 1018.2
20260503220009 12 43 0.0 0.0 0.00 0.00 0.00 79 1018.1
20260503214511 12 56 0.0 0.0 0.00 0.00 0.00 78 1018.0
20260503213008 13 66 0.0 0.0 0.00 0.00 0.00 78 1017.9
20260503211508 13 101 0.0 0.0 0.00 0.00 0.00 77 1018.0
20260503210008 13 46 0.0 0.0 0.00 0.00 0.00 76 1018.1
20260503204508 14 61 0.0 0.0 0.00 0.00 0.00 76 1018.1
20260503203006 14 71 0.0 0.0 0.00 0.00 0.00 75 1018.0
20260503201507 15 50 0.0 0.0 0.00 0.00 0.00 74 1018.0
20260503200006 15 104 0.0 0.0 0.00 0.00 0.00 73 1017.7
20260503194505 15 61 0.0 0.0 0.00 0.00 0.00 74 1017.5
20260503193005 14 42 0.0 0.0 0.00 0.00 0.00 74 1017.4
20260503191504 15 360 0.0 0.0 0.00 0.00 0.00 71 1017.4
20260503190004 16 47 0.0 0.0 0.00 0.00 0.00 69 1017.3
20260503184505 16 105 0.0 0.0 0.00 0.00 0.00 69 1017.0
20260503183002 16 28 0.0 0.0 0.00 0.00 0.00 69 1016.7
20260503181503 16 60 0.0 0.0 0.00 0.00 0.00 69 1016.8
20260503180002 17 35 0.0 0.0 0.00 0.00 0.00 66 1016.7
20260503174502 17 26 0.0 0.0 0.00 0.00 0.00 64 1016.6
20260503173111 18 96 0.0 0.0 0.00 0.00 0.00 61 1016.4
20260503173001 18 71 0.0 0.0 0.00 0.00 0.00 60 1016.3
20260503171600 20 121 0.0 0.0 0.00 0.00 0.00 56 1016.2
20260503090105 18 161 0.0 0.0 0.00 0.00 0.00 45 1019.0
20260503081547 16 136 0.0 0.0 0.00 0.00 0.00 53 1019.3
20260503071536 13 164 0.0 0.0 0.00 0.00 0.00 65 1019.8
20260503054509 10 5 0.0 0.0 0.00 0.00 0.00 75 1019.8
20260503053005 8 5 0.0 0.0 0.00 0.00 0.00 78 1019.7
20260503051502 8 5 0.0 0.0 0.00 0.00 0.00 81 1019.6
20260503050001 6 345 0.0 0.0 0.00 0.00 0.00 81 1019.6
20260503044559 5 345 0.0 0.0 0.00 0.00 0.00 82 1019.5
20260503043056 5 345 0.0 0.0 0.00 0.00 0.00 82 1019.4
20260503041555 5 346 0.0 0.0 0.00 0.00 0.00 82 1019.3
20260503040104 5 346 0.0 0.0 0.00 0.00 0.00 82 1019.3
20260503034550 5 346 0.0 0.0 0.00 0.00 0.00 82 1019.3